When you browse on this site, cookies collect data to enhance your experience and personalize the content and advertising you see.
Visit our Privacy Policy to learn more. By continuing to use the site, you agree to this use of cookies and data.
  • In Lithuania
  • List of Countries
  • For 7 days
  • Water Temperature
  • Satellite Maps
  • Weather Map
  • Weather Widgets
  • user-avatar
    Login

    Hourly Weather Oran

    Today, 18 February, Monday

    Time Temperature Precipitation Wind Pressure Humidity
    00:00 +12°C° 0 mm 3 mps 755 mmHg 33%
    01:00 +12°C° 0 mm 3 mps 755 mmHg 35%
    02:00 +11°C° 0 mm 3 mps 755 mmHg 36%
    03:00 +11°C° 0 mm 3 mps 754 mmHg 38%
    04:00 +10°C° 0 mm 3 mps 754 mmHg 39%
    05:00 +10°C° 0 mm 3 mps 754 mmHg 41%
    06:00 +10°C° 0 mm 3 mps 754 mmHg 42%
    07:00 +11°C° 0 mm 3 mps 754 mmHg 41%
    08:00 +12°C° 0 mm 3 mps 754 mmHg 39%
    09:00 +14°C° 0 mm 3 mps 754 mmHg 37%
    10:00 +17°C° 0 mm 2 mps 754 mmHg 34%
    11:00 +18°C° 0 mm 2 mps 753 mmHg 31%
    12:00 +21°C° 0 mm 1 mps 753 mmHg 29%
    13:00 +20°C° 0 mm 2 mps 752 mmHg 28%
    14:00 +21°C° 0 mm 3 mps 752 mmHg 28%
    15:00 +21°C° 0 mm 3 mps 751 mmHg 27%
    16:00 +20°C° 0 mm 4 mps 751 mmHg 35%
    17:00 +18°C° 0 mm 4 mps 751 mmHg 42%
    18:00 +15°C° 0 mm 4 mps 751 mmHg 50%
    19:00 +14°C° 0 mm 4 mps 751 mmHg 55%
    20:00 +13°C° 0 mm 4 mps 751 mmHg 60%
    21:00 +13°C° 0 mm 3 mps 752 mmHg 65%
    22:00 +12°C° 0 mm 3 mps 752 mmHg 60%
    23:00 +12°C° 0 mm 3 mps 752 mmHg 55%

    Tomorrow, 19 February, Tuesday

    Time Temperature Precipitation Wind Pressure Humidity
    00:00 +13°C° 0 mm 2 mps 752 mmHg 50%
    01:00 +13°C° 0 mm 2 mps 752 mmHg 48%
    02:00 +13°C° 0 mm 2 mps 752 mmHg 46%
    03:00 +13°C° 0 mm 2 mps 752 mmHg 44%
    04:00 +13°C° 0 mm 2 mps 752 mmHg 49%
    05:00 +13°C° 0 mm 2 mps 752 mmHg 54%
    06:00 +13°C° 0 mm 2 mps 752 mmHg 60%
    07:00 +14°C° 0 mm 2 mps 753 mmHg 62%
    08:00 +15°C° 0 mm 2 mps 753 mmHg 64%
    09:00 +16°C° 0 mm 2 mps 754 mmHg 66%
    10:00 +17°C° 0 mm 2 mps 754 mmHg 61%
    11:00 +18°C° 0 mm 2 mps 754 mmHg 57%
    12:00 +18°C° 0 mm 2 mps 754 mmHg 53%
    13:00 +19°C° 0 mm 3 mps 753 mmHg 51%
    14:00 +19°C° 0 mm 3 mps 753 mmHg 49%
    15:00 +19°C° 0 mm 4 mps 753 mmHg 47%
    16:00 +17°C° 0 mm 4 mps 753 mmHg 51%
    17:00 +15°C° 0 mm 4 mps 753 mmHg 55%
    18:00 +14°C° 0 mm 4 mps 753 mmHg 59%
    19:00 +13°C° 0 mm 3 mps 754 mmHg 63%
    20:00 +12°C° 0 mm 3 mps 754 mmHg 67%
    21:00 +12°C° 0 mm 2 mps 754 mmHg 72%
    22:00 +12°C° 0 mm 2 mps 755 mmHg 74%
    23:00 +10°C° 0 mm 2 mps 755 mmHg 76%

    Day after tomorrow, 20 February, Wednesday

    Time Temperature Precipitation Wind Pressure Humidity
    00:00 +10°C° 0 mm 2 mps 755 mmHg 79%
    01:00 +10°C° 0 mm 2 mps 755 mmHg 80%
    02:00 +10°C° 0 mm 2 mps 755 mmHg 82%
    03:00 +9°C° 0 mm 2 mps 755 mmHg 83%
    04:00 +9°C° 0 mm 2 mps 755 mmHg 85%
    05:00 +9°C° 0 mm 2 mps 755 mmHg 86%
    06:00 +9°C° 0 mm 2 mps 755 mmHg 88%
    07:00 +10°C° 0 mm 3 mps 756 mmHg 83%
    08:00 +12°C° 0 mm 3 mps 756 mmHg 78%
    09:00 +13°C° 0 mm 3 mps 757 mmHg 74%
    10:00 +14°C° 0 mm 4 mps 757 mmHg 69%
    11:00 +15°C° 0 mm 4 mps 757 mmHg 64%
    12:00 +15°C° 0 mm 4 mps 757 mmHg 59%
    13:00 +15°C° 0 mm 5 mps 757 mmHg 59%
    14:00 +15°C° 0 mm 5 mps 757 mmHg 58%
    15:00 +16°C° 0 mm 5 mps 756 mmHg 58%
    16:00 +14°C° 0 mm 5 mps 757 mmHg 65%
    17:00 +13°C° 0 mm 4 mps 757 mmHg 72%
    18:00 +12°C° 0 mm 4 mps 757 mmHg 79%
    19:00 +11°C° 0 mm 3 mps 758 mmHg 81%
    20:00 +11°C° 0 mm 3 mps 758 mmHg 84%
    21:00 +10°C° 0 mm 3 mps 759 mmHg 86%
    22:00 +9°C° 0 mm 2 mps 759 mmHg 87%
    23:00 +9°C° 0 mm 2 mps 759 mmHg 87%

    21 February, Thursday

    Time Temperature Precipitation Wind Pressure Humidity
    00:00 +10°C° 0 mm 1 mps 759 mmHg 87%
    01:00 +9°C° 0 mm 1 mps 759 mmHg 88%
    02:00 +9°C° 0 mm 1 mps 759 mmHg 88%
    03:00 +9°C° 0 mm 1 mps 759 mmHg 89%
    04:00 +9°C° 0 mm 1 mps 759 mmHg 88%
    05:00 +9°C° 0 mm 1 mps 759 mmHg 88%
    06:00 +9°C° 0 mm 1 mps 760 mmHg 88%
    07:00 +10°C° 0 mm 1 mps 760 mmHg 83%
    08:00 +12°C° 0 mm 1 mps 761 mmHg 78%
    09:00 +13°C° 0 mm 1 mps 761 mmHg 72%
    10:00 +14°C° 0 mm 2 mps 761 mmHg 66%
    11:00 +15°C° 0 mm 2 mps 761 mmHg 60%
    12:00 +16°C° 0 mm 2 mps 761 mmHg 54%
    13:00 +17°C° 0 mm 3 mps 761 mmHg 53%
    14:00 +17°C° 0 mm 4 mps 761 mmHg 52%
    15:00 +16°C° 0 mm 5 mps 760 mmHg 50%
    16:00 +15°C° 0 mm 5 mps 760 mmHg 58%
    17:00 +14°C° 0 mm 4 mps 761 mmHg 65%
    18:00 +12°C° 0 mm 4 mps 761 mmHg 72%
    19:00 +12°C° 0 mm 4 mps 761 mmHg 77%
    20:00 +11°C° 0 mm 3 mps 762 mmHg 82%
    21:00 +11°C° 0 mm 3 mps 762 mmHg 87%
    22:00 +10°C° 0 mm 3 mps 762 mmHg 87%
    23:00 +10°C° 0 mm 2 mps 762 mmHg 88%

    22 February, Friday

    Time Temperature Precipitation Wind Pressure Humidity
    00:00 +9°C° 0 mm 2 mps 762 mmHg 89%
    01:00 +9°C° 0 mm 2 mps 762 mmHg 88%
    02:00 +9°C° 0 mm 1 mps 762 mmHg 88%
    03:00 +9°C° 0 mm 1 mps 761 mmHg 88%
    04:00 +9°C° 0 mm 1 mps 761 mmHg 87%
    05:00 +9°C° 0 mm 1 mps 761 mmHg 87%
    06:00 +8°C° 0 mm 2 mps 761 mmHg 87%
    07:00 +11°C° 0 mm 1 mps 762 mmHg 79%
    08:00 +13°C° 0 mm 1 mps 762 mmHg 71%
    09:00 +14°C° 0 mm 1 mps 762 mmHg 63%
    10:00 +16°C° 0 mm 1 mps 762 mmHg 57%
    11:00 +18°C° 0 mm 1 mps 762 mmHg 50%
    12:00 +19°C° 0 mm 1 mps 762 mmHg 43%
    13:00 +19°C° 0 mm 2 mps 761 mmHg 45%
    14:00 +19°C° 0 mm 3 mps 760 mmHg 46%
    15:00 +19°C° 0 mm 4 mps 760 mmHg 47%
    16:00 +17°C° 0 mm 3 mps 760 mmHg 56%
    17:00 +14°C° 0 mm 3 mps 760 mmHg 64%
    18:00 +12°C° 0 mm 3 mps 760 mmHg 73%
    19:00 +13°C° 0 mm 2 mps 760 mmHg 76%
    20:00 +12°C° 0 mm 2 mps 760 mmHg 80%
    21:00 +10°C° 0 mm 2 mps 761 mmHg 84%
    22:00 +10°C° 0 mm 2 mps 761 mmHg 84%
    23:00 +9°C° 0 mm 2 mps 760 mmHg 84%

    23 February, Saturday

    Time Temperature Precipitation Wind Pressure Humidity
    00:00 +9°C° 0 mm 2 mps 760 mmHg 84%
    01:00 +9°C° 0 mm 2 mps 760 mmHg 85%
    02:00 +9°C° 0 mm 2 mps 760 mmHg 85%
    03:00 +8°C° 0 mm 2 mps 760 mmHg 86%
    04:00 +8°C° 0 mm 2 mps 760 mmHg 87%
    05:00 +8°C° 0 mm 3 mps 760 mmHg 88%
    06:00 +8°C° 0 mm 3 mps 760 mmHg 89%
    07:00 +10°C° 0 mm 3 mps 761 mmHg 82%
    08:00 +12°C° 0 mm 3 mps 761 mmHg 75%
    09:00 +14°C° 0 mm 3 mps 762 mmHg 68%
    10:00 +14°C° 0 mm 4 mps 762 mmHg 62%
    11:00 +15°C° 0 mm 4 mps 761 mmHg 57%
    12:00 +16°C° 0 mm 5 mps 761 mmHg 51%
    13:00 +17°C° 0 mm 5 mps 761 mmHg 51%
    14:00 +17°C° 0 mm 5 mps 761 mmHg 50%
    15:00 +17°C° 0 mm 5 mps 760 mmHg 50%
    16:00 +16°C° 0 mm 5 mps 760 mmHg 57%
    17:00 +14°C° 0 mm 5 mps 761 mmHg 65%
    18:00 +13°C° 0 mm 5 mps 761 mmHg 72%
    19:00 +12°C° 0 mm 5 mps 761 mmHg 76%
    20:00 +11°C° 0 mm 4 mps 761 mmHg 80%
    21:00 +11°C° 0 mm 3 mps 762 mmHg 85%
    22:00 +10°C° 0 mm 3 mps 762 mmHg 85%
    23:00 +10°C° 0 mm 2 mps 762 mmHg 86%
    Show more